Wind_Speed
19 17 16 15 14 13 12 9 8 7 5 3 2 2 3 4 5 7 9 10 11 11 11 12 12 13 14 13 14 13 12 12 12 10 9 8 7 7 5 4 3 3 2 1
21 20 19 18 17 15 13 11 10 9 8 6 4 4 4 4 4 6 7 9 10 10 11 11 11 12 12 12 13 13 12 12 11 10 9 8 8 7 6 5 4 3 3 2
23 22 21 20 18 17 15 13 12 11 10 8 7 6 6 5 5 6 7 9 10 10 11 10 11 12 12 11 12 12 12 12 11 10 10 9 8 7 6 5 4 4 4 3
26 25 23 21 21 18 17 16 14 13 10 10 9 7 8 7 7 8 8 9 10 10 10 9 10 11 11 10 11 11 12 11 11 10 10 9 8 7 6 5 5 5 4 4
26 26 24 23 23 21 20 18 16 15 13 12 12 9 9 9 8 9 9 10 11 11 11 9 9 9 9 10 10 11 11 11 11 11 10 9 8 7 7 6 6 6 5 4
27 26 26 25 24 23 22 20 19 17 16 15 14 12 11 11 10 10 11 11 12 12 11 10 9 9 10 10 10 11 11 10 10 10 9 9 8 7 7 7 7 7 6 6
28 27 26 26 25 24 23 21 19 17 17 17 17 15 13 13 12 12 12 12 13 12 11 10 10 10 11 10 11 11 11 11 11 10 10 9 9 8 8 8 7 7 7 6
28 28 28 27 26 25 24 22 21 18 16 16 18 16 14 14 14 14 14 13 12 11 11 11 11 11 11 11 11 11 11 13 12 11 11 10 9 9 8 8 8 8 7 7
28 28 28 28 27 27 27 25 23 21 20 18 17 17 15 15 15 15 15 14 12 12 12 12 12 11 12 12 12 11 12 12 12 12 11 11 10 9 9 9 8 8 8 8
29 28 29 29 28 28 28 26 25 23 22 20 19 18 16 15 15 14 14 14 13 13 13 13 12 12 13 13 13 12 12 12 12 12 12 12 11 10 10 10 9 9 9 9
30 28 28 29 29 28 28 28 27 25 24 21 20 19 19 17 16 15 15 14 14 14 14 14 14 15 15 15 15 14 13 12 13 13 13 12 11 10 10 10 10 10 10 10
29 29 27 28 29 29 29 28 27 26 26 25 22 20 21 19 17 16 16 15 15 15 15 15 16 17 17 16 16 16 15 15 15 14 13 12 11 11 10 11 11 11 11 11
30 30 28 27 29 30 30 30 29 28 27 26 23 21 23 21 19 18 18 17 18 17 17 17 17 17 17 17 16 16 16 15 14 14 14 13 12 12 12 12 12 12 12 12
30 30 29 26 26 28 30 30 30 29 27 26 25 24 24 23 22 21 20 20 19 19 19 19 18 18 18 18 17 17 17 17 17 16 16 15 14 13 13 13 14 14 14 15
29 30 30 30 29 29 29 30 30 30 29 28 26 26 25 24 23 22 22 21 21 21 21 20 20 20 20 20 19 19 18 18 18 18 18 17 16 16 15 15 15 16 16 17
29 29 29 30 29 29 29 29 30 30 30 30 29 28 26 25 25 24 23 23 22 23 22 22 22 22 22 22 21 21 19 19 18 19 19 19 18 18 18 17 18 18 18 18
29 29 30 29 30 29 30 30 30 30 30 29 29 29 27 27 26 26 25 24 24 23 23 23 23 23 23 23 23 22 20 20 20 20 20 20 19 20 20 20 20 20 20 19
31 30 30 29 30 30 31 30 30 31 31 30 30 29 28 27 27 26 26 26 25 24 24 25 25 24 24 25 24 24 22 22 22 22 22 22 21 21 22 22 22 23 23 22
33 32 32 31 30 31 32 30 29 30 31 30 30 29 29 28 28 28 28 28 28 27 26 27 27 27 26 26 26 26 25 25 24 24 24 25 25 24 25 24 23 24 24 23
33 33 33 33 31 31 33 31 30 29 32 31 31 31 30 30 30 30 30 30 30 29 29 29 30 29 29 29 29 28 28 28 28 28 28 26 26 27 26 25 25 25 25 26
34 34 34 33 33 33 35 33 32 32 33 32 32 32 32 32 32 32 31 31 31 31 31 31 31 31 30 30 30 30 30 30 30 30 30 29 28 28 28 28 28 28 27 27
33 34 34 34 34 35 36 34 34 34 34 34 33 33 33 33 33 33 33 32 32 33 33 32 32 32 32 32 31 31 31 31 31 31 31 30 30 31 31 31 30 29 29 29
34 35 35 35 35 35 34 35 35 35 35 35 34 34 34 34 35 34 34 34 34 34 34 33 33 34 33 34 34 33 33 33 34 33 33 33 33 32 32 32 31 30 30 30
34 34 34 35 35 34 34 34 35 36 36 36 36 36 36 35 35 35 34 35 35 35 35 35 35 35 35 35 35 36 35 35 36 35 36 34 34 33 32 33 32 31 31 31
34 34 34 35 35 35 35 34 34 34 35 36 36 37 36 36 35 35 35 35 35 35 36 36 37 37 37 36 37 37 37 38 37 37 37 36 36 35 35 34 33 33 33 33
33 34 34 35 34 35 35 35 34 34 34 35 36 36 36 37 37 36 35 35 35 35 35 36 36 37 37 37 37 38 38 38 38 38 37 37 37 36 36 36 35 35 35 35
Wind_Direction
222 223 223 226 225 227 231 236 244 256 267 285 298 320 348 4 5 7 9 9 9 8 9 12 14 16 17 18 20 22 22 25 25 23 19 19 20 18 14 9 6 355 338 314
224 226 226 228 231 233 237 238 247 254 262 270 276 288 305 325 340 346 352 356 357 358 358 1 4 7 9 11 13 14 15 17 18 16 12 11 12 10 5 358 353 344 332 307
225 228 229 229 232 235 239 238 244 252 265 268 272 284 291 299 313 326 332 338 344 345 345 348 352 357 359 1 3 7 8 8 7 7 7 4 4 6 3 358 352 343 330 314
227 229 230 230 232 234 239 243 245 252 263 268 268 271 282 288 297 309 316 322 329 336 338 339 343 349 352 353 354 357 0 360 358 358 357 356 356 358 358 356 352 345 333 315
230 231 231 233 234 234 238 242 244 248 254 258 268 262 269 277 284 295 303 311 319 326 330 329 332 340 344 344 346 347 349 352 353 352 350 349 348 348 346 343 337 332 325 315
231 232 232 233 235 236 240 244 248 252 255 257 261 258 262 270 277 287 294 303 309 315 319 320 322 327 331 334 337 339 341 344 346 348 346 344 341 339 337 336 334 327 316 308
232 233 232 234 236 237 238 241 247 251 253 257 261 258 258 264 272 279 284 292 300 303 307 308 310 315 321 326 332 334 336 339 337 341 342 338 335 331 326 325 327 326 316 304
233 234 234 234 235 238 237 237 237 241 249 257 266 260 259 265 270 273 278 284 290 293 295 297 301 307 312 316 322 327 331 331 331 330 333 334 332 329 325 321 321 322 320 312
230 234 236 236 236 236 238 237 237 242 245 246 255 264 267 267 270 270 274 277 279 283 288 291 294 301 305 306 311 315 321 324 323 325 329 332 329 325 322 319 316 316 316 312
229 232 235 236 237 236 236 238 237 237 242 247 256 263 267 270 274 274 271 269 272 276 282 286 289 293 298 300 302 306 309 315 321 323 324 324 322 317 316 314 312 310 310 313
229 231 235 235 235 236 236 237 239 240 241 245 252 259 267 269 269 270 267 264 266 270 274 278 282 288 293 296 300 300 302 309 314 315 319 320 316 314 314 310 308 306 306 307
228 229 233 235 236 235 237 238 240 241 246 248 248 254 264 266 265 264 262 262 264 267 270 275 279 284 288 290 290 291 295 299 304 308 312 315 312 310 310 309 305 304 304 302
227 229 230 236 238 237 238 239 241 243 246 249 251 255 261 265 263 262 261 262 263 265 270 274 276 280 282 284 285 287 288 290 294 302 305 305 304 304 305 304 304 303 303 303
229 231 230 231 236 241 241 242 242 243 245 249 250 250 258 263 262 262 261 260 262 265 268 271 274 276 278 280 283 287 286 285 287 294 297 297 297 299 302 301 301 301 301 301
230 233 233 233 235 240 243 244 244 244 244 247 251 254 256 259 260 260 259 258 259 261 264 268 271 272 275 277 280 284 284 284 284 287 290 291 291 294 297 297 296 295 295 295
231 233 235 237 238 240 243 244 245 246 247 249 251 255 257 257 258 258 260 260 259 260 263 266 268 269 271 274 276 277 278 280 281 283 285 285 285 287 291 293 294 292 293 293
233 234 236 239 241 242 243 242 243 245 246 248 251 254 256 258 258 257 257 258 258 259 261 262 264 266 267 269 272 272 274 278 281 283 284 288 284 285 288 289 290 288 290 290
236 237 239 241 243 244 244 244 243 244 246 248 250 253 255 256 257 256 255 256 257 258 259 259 261 265 266 267 270 272 272 275 279 281 281 283 283 283 284 285 285 286 286 287
237 239 240 241 245 246 247 245 244 245 247 248 250 252 254 256 257 256 255 256 258 259 259 258 259 262 265 265 266 268 270 274 277 280 283 283 281 281 283 284 283 285 287 288
237 239 242 242 243 247 250 248 247 248 249 248 249 252 254 256 257 257 257 258 259 260 261 260 260 261 262 264 266 266 269 271 274 277 278 279 280 281 282 286 286 285 286 287
238 240 242 245 247 248 249 249 249 249 250 250 251 253 255 256 257 258 258 259 258 259 260 260 261 261 262 263 265 266 268 270 273 274 274 274 278 280 282 284 285 284 284 285
241 242 243 245 247 249 250 250 249 251 252 253 253 254 255 257 258 259 259 259 259 259 259 260 261 261 262 263 264 265 267 268 270 273 274 276 277 278 279 281 282 281 282 282
243 244 245 245 247 250 252 252 251 252 252 253 255 255 257 258 259 260 260 259 260 261 260 260 260 261 261 262 263 265 266 266 267 271 273 275 276 277 276 278 279 279 280 281
244 245 246 247 247 249 252 252 252 252 253 254 255 256 257 258 259 260 261 261 262 261 260 259 260 261 261 262 263 263 265 268 268 269 271 272 275 275 276 277 277 278 280 281
246 246 247 248 249 250 251 252 252 253 253 254 255 256 257 258 260 260 260 260 260 260 259 259 259 261 262 262 263 264 264 266 269 269 270 270 272 273 275 274 274 276 277 280
247 246 246 248 249 251 251 252 251 252 253 254 255 256 257 259 259 259 259 260 260 259 259 259 259 260 261 262 262 263 264 265 266 267 270 270 271 270 271 272 273 276 278 279
Height
5924 5928 5931 5933 5934 5937 5938 5939 5940 5940 5939 5939 5939 5939 5938 5936 5935 5934 5932 5931 5929 5928 5926 5924 5922 5920 5918 5916 5914 5912 5911 5909 5907 5905 5904 5902 5901 5900 5899 5898 5898 5897 5896 5896
5922 5925 5927 5929 5931 5933 5935 5937 5938 5938 5938 5938 5938 5938 5937 5936 5935 5934 5932 5931 5930 5928 5927 5925 5923 5921 5919 5917 5916 5914 5912 5910 5908 5906 5904 5903 5901 5900 5899 5898 5897 5897 5896 5895
5918 5922 5923 5925 5928 5930 5932 5934 5936 5936 5936 5936 5937 5938 5937 5936 5935 5933 5932 5931 5930 5928 5927 5925 5923 5922 5920 5918 5916 5915 5913 5911 5909 5907 5905 5903 5902 5900 5899 5898 5897 5896 5896 5895
5913 5916 5919 5922 5924 5927 5929 5931 5932 5933 5934 5936 5936 5938 5936 5935 5934 5932 5931 5930 5929 5928 5926 5925 5923 5922 5920 5918 5917 5915 5913 5911 5909 5907 5905 5903 5902 5900 5899 5898 5897 5896 5895 5894
5908 5911 5914 5918 5921 5923 5926 5927 5929 5930 5932 5933 5934 5936 5937 5933 5932 5932 5930 5929 5928 5927 5926 5924 5923 5921 5920 5918 5917 5915 5913 5911 5909 5907 5905 5903 5901 5900 5899 5898 5897 5895 5894 5893
5904 5906 5910 5913 5916 5919 5921 5923 5925 5927 5929 5931 5931 5932 5933 5932 5931 5930 5929 5928 5927 5926 5925 5923 5922 5921 5919 5918 5916 5914 5912 5910 5908 5906 5905 5903 5901 5900 5898 5897 5896 5894 5893 5892
5898 5901 5904 5908 5911 5914 5917 5921 5924 5925 5926 5928 5927 5927 5929 5928 5928 5927 5927 5926 5925 5924 5923 5922 5921 5919 5918 5916 5915 5913 5911 5909 5907 5906 5904 5902 5900 5899 5897 5896 5894 5893 5892 5891
5894 5897 5899 5903 5906 5909 5912 5916 5920 5923 5925 5925 5922 5923 5925 5924 5924 5924 5924 5923 5923 5922 5921 5920 5919 5917 5916 5915 5913 5912 5910 5908 5906 5904 5903 5901 5899 5897 5896 5895 5893 5892 5891 5889
5889 5892 5894 5897 5901 5904 5906 5910 5914 5917 5918 5920 5921 5919 5920 5920 5920 5920 5920 5920 5920 5919 5918 5917 5916 5915 5914 5913 5911 5910 5908 5906 5904 5903 5901 5899 5897 5896 5894 5893 5892 5890 5889 5888
5883 5887 5889 5891 5895 5898 5901 5904 5907 5911 5913 5915 5916 5916 5917 5916 5916 5916 5916 5916 5916 5916 5915 5914 5913 5913 5912 5910 5909 5907 5906 5904 5902 5901 5899 5897 5896 5894 5893 5891 5890 5889 5887 5886
5877 5881 5883 5886 5889 5892 5895 5898 5901 5904 5907 5910 5913 5915 5912 5911 5912 5912 5912 5912 5912 5912 5912 5911 5910 5910 5909 5907 5906 5904 5902 5901 5900 5898 5896 5895 5893 5892 5891 5889 5888 5887 5886 5884
5871 5875 5878 5880 5883 5886 5889 5892 5895 5899 5900 5902 5906 5911 5906 5906 5907 5908 5908 5908 5908 5908 5908 5907 5907 5906 5905 5904 5902 5901 5900 5898 5897 5895 5894 5892 5891 5890 5888 5887 5885 5884 5883 5882
5864 5869 5872 5875 5879 5880 5883 5886 5889 5892 5895 5896 5900 5904 5900 5901 5902 5903 5903 5904 5904 5904 5904 5903 5903 5902 5901 5900 5899 5897 5896 5895 5893 5892 5891 5889 5888 5887 5886 5884 5883 5882 5881 5879
5858 5862 5867 5872 5873 5874 5876 5879 5882 5886 5889 5890 5893 5896 5895 5895 5896 5897 5898 5898 5899 5899 5899 5899 5898 5898 5897 5896 5895 5893 5892 5891 5890 5888 5887 5886 5885 5883 5882 5881 5880 5879 5877 5876
5851 5855 5859 5862 5865 5868 5870 5872 5875 5878 5881 5884 5886 5887 5888 5889 5890 5891 5891 5892 5893 5893 5893 5893 5893 5893 5892 5891 5890 5889 5888 5887 5886 5884 5883 5882 5881 5880 5879 5878 5876 5875 5874 5872
5845 5849 5852 5855 5858 5860 5863 5866 5868 5871 5873 5876 5878 5880 5881 5882 5883 5884 5885 5886 5886 5887 5887 5887 5887 5887 5887 5886 5885 5884 5883 5882 5881 5880 5879 5877 5876 5875 5874 5873 5872 5871 5869 5868
5838 5842 5846 5849 5851 5853 5856 5859 5861 5863 5866 5868 5870 5872 5873 5875 5876 5877 5878 5879 5880 5880 5881 5881 5881 5881 5881 5880 5879 5878 5877 5877 5876 5875 5874 5872 5871 5870 5869 5868 5867 5865 5864 5862
5831 5835 5838 5841 5844 5846 5850 5851 5854 5856 5858 5860 5862 5864 5866 5867 5869 5870 5871 5872 5873 5874 5874 5874 5874 5874 5874 5874 5873 5873 5872 5872 5871 5870 5869 5868 5866 5865 5864 5862 5861 5860 5858 5857
5824 5827 5831 5834 5836 5838 5841 5843 5846 5848 5850 5853 5854 5856 5858 5859 5861 5862 5863 5864 5865 5866 5866 5867 5867 5867 5867 5867 5867 5866 5866 5866 5865 5864 5863 5861 5860 5859 5857 5856 5854 5853 5852 5851
5815 5819 5823 5825 5828 5831 5833 5835 5838 5841 5842 5844 5846 5848 5850 5851 5852 5854 5854 5855 5856 5857 5858 5858 5859 5859 5859 5859 5859 5859 5859 5859 5858 5857 5855 5854 5853 5852 5850 5849 5849 5847 5846 5845
5808 5810 5813 5816 5819 5822 5823 5826 5829 5833 5834 5835 5837 5839 5841 5842 5843 5845 5845 5846 5847 5848 5849 5850 5850 5850 5851 5851 5851 5851 5851 5851 5851 5849 5848 5847 5846 5845 5844 5843 5842 5840 5839 5838
5799 5802 5805 5807 5810 5814 5814 5816 5820 5822 5824 5825 5827 5829 5831 5832 5833 5835 5836 5837 5838 5839 5840 5840 5841 5841 5841 5842 5842 5842 5843 5843 5842 5841 5840 5839 5839 5838 5837 5836 5834 5833 5831 5830
5789 5793 5795 5798 5802 5802 5804 5806 5809 5811 5813 5815 5817 5819 5820 5822 5823 5825 5826 5827 5828 5829 5830 5831 5831 5832 5832 5832 5833 5833 5833 5833 5832 5832 5832 5831 5830 5829 5828 5827 5826 5824 5824 5822
5779 5782 5785 5788 5790 5792 5794 5796 5798 5800 5803 5805 5806 5808 5810 5811 5813 5814 5815 5816 5817 5818 5819 5820 5821 5821 5822 5822 5822 5823 5823 5822 5822 5823 5823 5822 5821 5820 5819 5818 5817 5816 5815 5814
5770 5773 5775 5777 5780 5782 5784 5786 5788 5790 5792 5794 5795 5797 5799 5800 5802 5803 5804 5805 5806 5807 5808 5809 5810 5810 5811 5812 5812 5812 5813 5813 5812 5812 5812 5812 5811 5810 5809 5807 5807 5807 5806 5805
5760 5762 5765 5767 5770 5772 5774 5776 5778 5780 5782 5783 5784 5786 5787 5789 5790 5792 5793 5794 5795 5796 5797 5798 5799 5799 5800 5801 5801 5801 5802 5802 5802 5802 5801 5800 5800 5799 5798 5797 5797 5797 5796 5795